Temperature
9 10 10 10 10 10 10 10 10 10 10 10 10 10 10 10 10 10 10 10 10 10 10 10 10 10 10 10 10 10 10 10 10 10 10 10 10 10 10 10 10 10 10
9 9 9 9 9 9 9 9 9 9 9 9 9 9 9 9 9 9 9 10 10 9 9 9 9 9 9 9 9 9 9 9 9 9 9 10 9 9 10 10 10 10 10
9 9 9 9 9 9 9 9 9 9 9 9 9 9 9 9 8 8 9 9 9 9 9 8 8 8 9 9 9 8 8 9 9 9 9 9 9 9 9 9 9 9 9
8 8 8 8 9 8 8 8 8 8 8 8 8 8 8 8 8 8 8 8 8 8 8 8 8 8 8 8 8 8 8 8 8 8 8 8 8 8 8 9 9 9 9
8 8 8 8 8 8 8 8 8 8 8 8 8 7 7 7 7 7 7 7 7 8 8 8 8 8 7 7 7 7 7 8 8 8 8 8 8 8 8 8 8 8 8
7 7 7 7 7 7 7 7 7 7 7 7 7 7 7 7 7 7 7 7 7 7 7 7 7 7 7 7 7 7 7 7 7 7 7 7 7 7 7 7 8 8 8
7 7 7 7 7 7 7 7 7 7 6 6 6 6 6 6 6 6 6 6 6 6 6 7 7 7 7 6 6 6 6 6 6 6 7 7 7 7 7 7 7 7 7
6 6 6 6 6 6 6 6 6 6 6 6 6 5 5 5 5 5 5 5 5 6 6 6 6 6 6 6 6 6 6 6 6 6 6 6 7 7 7 6 6 6 7
5 5 5 5 5 5 6 6 6 6 6 5 5 5 5 5 4 4 4 5 5 5 5 5 6 6 6 5 5 5 5 5 5 6 6 6 6 6 6 6 6 6 6
5 5 5 5 5 5 5 5 5 5 5 5 5 5 5 4 4 4 4 4 4 4 5 5 5 5 5 5 5 5 5 5 5 5 5 5 5 5 5 5 5 6 6
4 4 4 4 4 4 4 4 4 4 4 4 4 4 4 4 4 4 3 4 4 4 4 4 4 4 4 4 4 4 4 4 4 4 4 4 5 5 5 5 5 5 5
3 3 3 3 4 4 4 4 4 4 4 4 4 3 3 3 3 3 3 3 3 3 3 3 3 4 3 4 4 4 4 4 4 4 4 4 4 4 4 4 4 4 4
3 3 3 3 3 3 3 3 3 3 3 3 3 3 3 3 3 2 3 2 2 2 2 2 3 3 3 3 3 3 3 3 3 3 3 3 3 3 4 4 4 4 4
2 2 2 2 2 2 2 2 2 2 2 2 2 2 2 2 2 2 2 2 1 1 1 2 2 2 2 2 2 2 2 2 2 2 2 2 2 3 3 3 3 3 3
1 1 1 1 1 1 1 1 1 1 1 1 1 1 1 1 1 1 1 1 1 0 0 1 1 1 1 1 1 1 1 1 1 1 1 1 1 2 2 2 2 2 2
0 0 0 0 0 0 0 0 0 1 1 1 1 1 1 1 1 1 0 0 0 0 -0 0 0 0 0 0 0 0 0 0 0 0 0 0 0 1 1 1 1 1 1
-1 -1 -1 -1 -1 -0 -0 -0 -0 -0 -0 -0 -0 -0 -0 -0 -0 -0 -0 -0 -0 -1 -1 -1 -0 -1 -1 -1 -1 -1 -1 -1 -1 -1 -1 -1 -1 -1 -1 -0 -0 -0 -0
-2 -2 -2 -2 -1 -1 -1 -1 -1 -1 -1 -1 -1 -1 -1 -1 -1 -1 -1 -1 -1 -1 -2 -2 -1 -2 -2 -2 -2 -1 -1 -1 -1 -1 -1 -2 -2 -2 -1 -1 -1 -1 -1
-3 -3 -3 -2 -2 -2 -2 -2 -2 -2 -2 -1 -1 -2 -2 -2 -2 -2 -2 -2 -2 -2 -2 -3 -2 -2 -2 -2 -3 -2 -2 -2 -2 -2 -2 -2 -2 -2 -2 -2 -2 -2 -2
-3 -3 -3 -3 -3 -3 -3 -3 -3 -3 -3 -3 -3 -3 -3 -2 -2 -2 -2 -3 -3 -3 -3 -3 -3 -3 -3 -3 -3 -3 -3 -3 -3 -3 -3 -3 -3 -3 -3 -3 -2 -2 -2
-4 -4 -4 -4 -4 -4 -4 -4 -4 -4 -3 -3 -3 -3 -3 -3 -3 -3 -4 -4 -4 -4 -4 -4 -4 -4 -4 -4 -4 -4 -4 -4 -4 -4 -4 -4 -4 -3 -3 -3 -3 -3 -3
-5 -5 -5 -5 -5 -5 -5 -5 -5 -4 -4 -4 -4 -4 -4 -4 -4 -4 -4 -5 -5 -5 -5 -5 -5 -5 -5 -5 -5 -5 -5 -5 -5 -4 -4 -4 -4 -4 -4 -4 -4 -4 -4
-5 -5 -5 -5 -5 -5 -5 -5 -5 -5 -5 -5 -5 -5 -5 -5 -5 -5 -5 -5 -5 -5 -5 -5 -5 -5 -5 -5 -5 -6 -6 -6 -5 -5 -5 -5 -5 -5 -4 -4 -4 -4 -4
-6 -6 -6 -6 -6 -6 -6 -6 -6 -6 -6 -6 -6 -6 -6 -6 -6 -6 -6 -6 -6 -6 -6 -6 -6 -6 -6 -6 -6 -6 -6 -6 -6 -6 -6 -6 -5 -5 -5 -5 -5 -5 -5
-7 -7 -7 -7 -7 -6 -6 -7 -7 -7 -7 -6 -6 -6 -6 -6 -6 -7 -7 -7 -6 -6 -6 -7 -6 -6 -7 -7 -7 -7 -7 -7 -7 -6 -7 -7 -6 -6 -6 -6 -6 -6 -6
-7 -7 -7 -7 -7 -7 -7 -7 -7 -8 -8 -8 -7 -7 -7 -7 -7 -7 -7 -7 -7 -7 -7 -7 -7 -7 -7 -7 -7 -7 -7 -7 -7 -7 -7 -7 -7 -7 -7 -6 -6 -6 -6
Wind_Speed
5 5 5 6 6 6 7 7 7 7 7 8 8 8 8 8 8 8 7 8 8 8 8 8 8 8 9 9 9 8 8 8 8 8 7 7 7 7 7 7 8 8 8
6 5 5 5 5 6 6 6 6 6 6 6 7 7 7 7 7 8 7 7 8 8 8 8 8 8 8 8 7 7 7 7 8 8 7 6 6 6 6 6 7 7 7
6 5 5 4 4 5 6 6 6 6 5 5 5 6 7 7 7 7 7 7 8 8 8 8 7 7 7 7 7 7 6 6 6 6 6 6 6 5 5 5 5 5 6
6 5 4 4 5 6 5 4 4 3 3 3 3 4 5 6 7 7 8 8 8 8 8 8 8 8 7 6 6 6 5 5 5 5 5 5 5 4 5 5 4 4 4
6 5 4 4 5 5 4 3 3 3 3 3 3 3 4 4 5 6 7 8 8 9 9 8 9 8 8 6 5 5 5 5 6 5 5 4 4 4 4 4 4 4 4
6 6 5 4 5 3 2 3 3 2 2 3 3 3 3 3 5 5 5 6 8 9 9 9 8 8 8 8 6 5 5 4 5 5 5 4 4 4 4 4 4 5 4
6 6 4 4 4 3 2 3 2 3 2 2 3 2 3 4 4 4 4 5 6 7 8 8 8 8 7 8 8 7 6 4 4 4 4 4 4 3 3 3 3 4 4
5 6 5 4 3 3 3 3 3 2 1 1 2 2 1 2 2 3 3 3 4 5 6 7 7 8 8 8 7 8 8 6 5 3 3 3 3 1 1 1 2 2 3
3 4 5 5 4 3 3 3 3 3 3 1 1 2 3 3 1 1 2 2 2 2 3 4 6 7 7 7 7 7 7 6 6 5 3 2 3 0 1 1 1 1 2
2 3 4 5 4 4 3 3 3 2 3 3 1 0 1 3 2 1 1 1 2 2 2 2 3 5 5 5 6 7 7 6 6 6 5 4 4 2 1 1 1 1 1
1 2 3 4 3 4 4 3 3 2 2 3 2 1 1 1 2 2 2 1 1 1 1 1 1 3 4 5 5 6 6 6 6 6 6 6 5 4 2 2 1 1 1
1 1 2 3 3 3 4 4 3 3 2 2 2 2 2 2 2 2 2 2 1 1 1 1 0 1 2 4 4 5 5 6 6 5 5 6 7 6 5 4 3 3 2
1 2 2 2 2 3 4 3 3 3 3 3 3 2 2 2 2 2 2 2 1 1 1 1 2 1 1 3 4 4 5 5 5 6 5 5 6 6 7 6 5 4 3
2 2 3 2 2 3 3 3 3 3 3 3 3 3 2 2 2 2 3 3 1 1 2 3 1 2 1 2 3 3 4 5 5 5 5 5 5 6 6 6 6 5 3
1 2 2 2 2 2 2 3 3 3 3 3 3 3 2 2 2 2 2 3 4 3 4 3 2 2 2 3 3 3 4 5 5 5 5 5 5 5 5 5 6 5 4
1 1 2 2 2 2 2 2 2 2 3 3 3 3 3 2 2 2 2 2 2 3 3 3 3 2 3 3 4 4 5 5 5 5 5 6 6 5 5 5 5 5 4
2 2 2 3 3 3 2 3 3 3 4 4 3 3 3 2 2 2 2 2 2 2 3 2 2 1 2 2 3 4 5 5 5 6 6 6 6 6 6 5 5 5 5
3 3 3 3 3 3 3 4 4 4 4 4 4 4 4 3 2 2 2 2 2 2 3 3 2 1 2 3 3 3 4 5 6 7 7 7 6 6 6 6 6 6 6
3 3 3 4 4 4 4 4 5 5 5 5 4 5 4 4 3 2 3 3 2 2 2 2 2 1 1 2 2 3 3 4 5 6 7 7 7 7 7 7 7 7 6
4 4 4 4 4 4 4 4 5 5 5 5 4 5 5 5 5 4 4 3 3 3 2 2 2 2 2 2 2 2 3 2 3 5 7 7 8 8 9 9 8 8 7
4 4 4 4 4 4 4 5 5 5 5 5 4 5 5 6 7 6 4 4 4 3 3 3 3 2 2 2 3 2 4 3 3 3 3 5 6 6 8 9 9 9 8
4 4 4 5 5 5 7 8 6 5 5 5 5 5 5 6 7 8 9 8 7 6 5 4 4 5 5 4 3 3 3 3 4 3 3 4 4 5 7 8 10 10 10
4 4 4 5 5 6 8 9 9 5 5 5 5 5 5 5 6 5 7 8 8 10 9 6 6 6 5 5 4 4 4 4 5 3 2 5 3 5 7 9 11 10 10
3 4 4 5 5 6 9 9 9 6 5 5 6 6 6 5 6 6 5 5 6 7 8 6 6 6 6 6 6 6 5 4 3 3 4 4 3 4 5 7 9 10 9
3 3 4 4 5 6 9 10 8 4 4 5 6 6 6 6 9 10 6 6 6 6 9 11 11 11 11 10 8 3 3 3 4 4 3 3 3 3 3 4 7 8 8
3 3 4 4 4 5 8 10 9 4 5 5 5 6 9 9 11 11 7 6 7 6 5 5 7 8 7 8 10 7 5 5 4 4 3 3 2 1 3 3 3 4 5
Wind_Direction
117 113 106 98 93 96 96 91 83 78 74 71 75 82 79 76 74 69 63 63 63 60 66 75 78 79 80 79 78 79 72 71 72 73 78 81 82 78 76 74 74 72 69
130 126 116 105 102 103 102 101 98 92 83 77 72 77 82 80 76 72 66 61 58 59 62 70 71 74 77 78 78 78 72 66 65 69 72 75 79 81 82 80 78 75 71
137 130 122 114 111 111 104 97 93 92 87 79 70 72 76 75 76 73 70 64 56 53 59 65 66 67 68 72 73 75 72 65 63 63 69 75 78 79 78 82 83 77 73
138 129 120 115 119 116 108 103 96 97 90 82 68 60 67 73 71 70 70 64 58 51 51 57 58 58 58 63 66 71 72 69 67 60 60 66 71 71 69 65 75 80 74
136 130 122 119 120 113 106 113 107 111 113 99 89 66 58 64 68 72 66 61 59 56 52 51 52 52 48 51 58 61 66 69 66 64 60 61 66 67 68 63 60 70 74
143 137 126 121 121 115 106 110 117 99 114 120 101 72 48 54 67 70 70 64 60 57 55 54 51 47 43 44 48 50 56 61 65 65 63 66 69 68 66 64 61 59 60
145 140 130 127 128 133 137 129 131 114 95 111 98 66 29 36 53 58 65 66 57 57 57 54 50 49 41 35 39 45 45 48 55 57 56 61 70 70 66 63 64 58 54
147 153 144 147 145 139 131 129 125 135 130 122 122 119 94 358 6 30 43 58 52 55 57 54 51 47 47 38 32 38 38 37 36 35 36 39 43 68 101 81 74 57 44
153 156 161 157 153 151 162 159 154 155 165 202 129 143 153 196 243 343 23 39 34 44 48 53 51 47 47 42 32 30 30 30 28 19 1 358 2 354 99 70 54 48 45
161 155 162 163 165 161 166 170 155 160 162 178 204 67 133 142 150 202 318 3 19 31 25 39 53 53 46 40 31 26 25 23 24 21 10 354 349 357 51 35 63 4 27
170 161 162 163 173 174 174 173 167 161 168 177 177 155 105 89 109 153 206 271 334 339 356 358 58 58 44 34 26 22 20 19 20 23 17 7 351 344 340 352 354 350 354
307 229 180 173 177 182 187 185 178 181 185 180 184 172 161 161 173 160 178 201 235 285 325 310 352 57 50 28 16 14 13 9 7 7 10 12 9 359 350 336 312 311 316
262 261 233 208 195 192 193 186 184 194 192 186 194 201 190 182 166 162 157 173 208 267 279 290 258 245 21 7 349 358 0 356 354 351 353 358 2 2 0 358 331 311 313
235 243 231 226 211 197 196 192 200 205 197 201 206 206 207 198 176 171 163 159 172 239 240 244 262 234 311 327 316 336 341 338 341 344 344 350 354 355 353 353 346 329 324
262 243 227 236 229 210 209 201 212 215 211 214 214 213 217 217 196 190 174 171 173 204 231 226 226 232 268 290 295 307 316 314 323 329 330 338 341 342 344 345 342 337 340
268 254 254 244 237 228 220 212 223 219 211 217 214 206 215 222 208 198 196 192 188 194 224 218 227 243 249 263 281 296 291 298 305 309 312 319 323 323 321 326 330 329 319
246 236 241 239 234 230 223 214 221 212 207 211 207 200 211 204 200 204 197 193 201 188 227 250 243 234 224 240 272 278 279 275 280 290 294 301 310 311 309 314 321 324 322
243 237 236 235 234 233 223 213 219 217 211 215 215 205 212 206 203 206 199 206 210 205 207 238 258 247 242 233 240 255 268 269 271 279 283 290 294 299 302 302 305 307 311
244 244 236 232 233 229 222 219 218 217 216 217 214 213 212 199 209 212 208 212 214 217 200 214 247 258 257 240 248 268 267 266 270 277 279 282 288 289 291 290 292 292 295
233 235 237 237 242 240 232 225 222 218 219 223 222 219 215 208 209 207 216 215 209 204 196 202 233 249 247 239 220 251 275 259 271 275 271 275 284 286 286 284 283 284 283
236 236 235 237 242 239 234 224 223 222 219 225 228 227 226 227 226 219 223 212 207 209 209 216 229 240 240 229 233 232 255 268 267 258 257 267 275 276 279 280 277 274 270
237 232 227 231 236 240 244 236 231 221 222 224 230 234 238 236 240 239 239 234 221 216 217 222 229 233 237 238 236 239 244 263 272 241 237 266 260 264 266 267 270 271 268
238 239 236 233 237 245 249 245 240 228 222 223 226 230 240 242 239 239 246 247 244 242 236 228 229 232 230 225 223 234 237 245 254 247 249 268 261 266 264 268 269 267 266
238 241 246 243 244 252 252 252 248 239 228 228 227 225 228 233 236 234 235 241 243 244 243 237 232 236 234 222 218 229 233 248 266 245 221 253 258 262 270 264 267 267 268
243 244 250 246 248 257 256 255 254 243 242 242 238 233 229 229 241 242 235 235 246 252 251 247 247 246 248 246 234 223 223 238 263 253 216 227 253 272 274 267 262 267 273
247 251 258 252 251 257 261 259 255 244 246 250 246 240 239 239 243 245 233 227 239 247 249 257 253 250 247 244 237 221 217 231 253 254 217 211 238 261 279 274 258 268 273
Height
1543 1543 1544 1545 1546 1546 1547 1548 1549 1549 1550 1550 1550 1550 1551 1551 1552 1553 1553 1554 1554 1554 1554 1555 1555 1555 1555 1555 1555 1555 1555 1555 1555 1555 1555 1555 1555 1555 1555 1555 1554 1554 1554
1541 1542 1542 1543 1544 1545 1546 1546 1547 1548 1549 1549 1549 1549 1550 1550 1551 1551 1552 1552 1553 1553 1553 1554 1554 1554 1554 1554 1554 1554 1554 1554 1554 1554 1554 1554 1554 1554 1554 1554 1554 1554 1553
1539 1540 1540 1541 1542 1543 1544 1545 1546 1547 1547 1547 1548 1548 1548 1549 1549 1550 1550 1551 1551 1552 1552 1552 1553 1553 1553 1553 1553 1553 1553 1553 1553 1553 1553 1553 1553 1553 1553 1553 1553 1553 1553
1537 1538 1538 1539 1540 1541 1542 1543 1544 1544 1545 1546 1546 1547 1547 1547 1548 1548 1549 1549 1550 1550 1550 1550 1551 1551 1552 1552 1552 1552 1552 1552 1552 1552 1552 1552 1552 1552 1552 1552 1552 1552 1552
1535 1535 1536 1537 1538 1539 1539 1540 1541 1542 1542 1543 1544 1545 1545 1545 1546 1547 1547 1548 1548 1548 1549 1549 1549 1549 1550 1550 1550 1551 1551 1550 1550 1550 1550 1550 1550 1550 1550 1550 1550 1551 1550
1532 1533 1533 1534 1535 1536 1536 1537 1538 1539 1540 1541 1542 1542 1543 1543 1544 1544 1545 1545 1546 1546 1547 1547 1547 1548 1548 1548 1549 1549 1549 1549 1549 1548 1548 1548 1548 1548 1548 1549 1549 1549 1549
1529 1530 1530 1531 1532 1533 1534 1534 1535 1536 1537 1538 1539 1540 1541 1541 1541 1542 1543 1543 1544 1544 1545 1545 1546 1546 1546 1547 1547 1547 1547 1547 1547 1547 1546 1546 1546 1546 1546 1547 1547 1547 1547
1525 1526 1527 1528 1529 1530 1530 1531 1532 1533 1534 1535 1536 1536 1538 1540 1539 1539 1540 1541 1541 1542 1542 1543 1543 1544 1544 1545 1545 1545 1545 1545 1545 1545 1544 1544 1544 1544 1544 1544 1544 1544 1545
1521 1522 1523 1525 1525 1526 1527 1528 1529 1530 1530 1532 1533 1534 1534 1534 1536 1537 1537 1538 1539 1539 1540 1540 1541 1541 1542 1542 1542 1542 1542 1542 1542 1542 1542 1541 1541 1541 1541 1541 1542 1542 1542
1518 1519 1520 1521 1522 1523 1524 1524 1525 1526 1527 1528 1529 1530 1531 1531 1532 1533 1535 1535 1536 1536 1537 1538 1538 1539 1540 1540 1540 1540 1540 1540 1539 1539 1539 1539 1539 1538 1538 1538 1539 1539 1539
1514 1515 1516 1517 1518 1519 1520 1521 1521 1522 1523 1524 1525 1526 1527 1527 1528 1529 1529 1531 1533 1533 1534 1535 1535 1536 1537 1537 1537 1537 1537 1537 1536 1536 1536 1536 1536 1535 1535 1535 1536 1536 1536
1510 1511 1512 1513 1514 1515 1516 1516 1517 1518 1519 1520 1521 1522 1523 1524 1524 1525 1526 1526 1528 1529 1530 1531 1532 1532 1533 1533 1534 1534 1534 1534 1533 1533 1533 1533 1532 1532 1532 1532 1532 1533 1532
1506 1507 1508 1509 1509 1510 1511 1512 1513 1514 1515 1516 1517 1519 1519 1520 1521 1522 1523 1523 1524 1525 1526 1527 1528 1529 1529 1530 1530 1530 1530 1530 1530 1530 1530 1529 1529 1529 1528 1528 1529 1529 1528
1502 1504 1505 1505 1505 1506 1507 1508 1509 1510 1511 1512 1513 1514 1515 1516 1517 1518 1519 1520 1520 1520 1521 1522 1523 1524 1525 1526 1526 1526 1526 1527 1527 1527 1526 1526 1526 1525 1525 1524 1525 1525 1524
1498 1499 1500 1501 1501 1502 1503 1503 1504 1505 1506 1507 1509 1510 1511 1512 1513 1514 1515 1516 1517 1516 1516 1517 1518 1519 1520 1521 1522 1522 1522 1523 1523 1523 1523 1522 1522 1521 1521 1520 1520 1521 1520
1494 1494 1495 1496 1496 1497 1498 1499 1499 1500 1502 1503 1504 1505 1506 1508 1508 1509 1510 1511 1512 1513 1512 1512 1514 1515 1516 1516 1517 1517 1518 1518 1518 1518 1518 1518 1518 1517 1517 1517 1516 1516 1516
1489 1489 1490 1491 1492 1492 1493 1494 1495 1496 1497 1498 1499 1500 1501 1503 1503 1504 1505 1506 1507 1508 1507 1508 1510 1510 1511 1512 1512 1513 1513 1513 1514 1514 1514 1513 1513 1513 1513 1513 1512 1512 1512
1485 1485 1486 1486 1487 1488 1488 1489 1490 1491 1492 1493 1494 1495 1496 1498 1498 1500 1500 1501 1502 1503 1504 1503 1504 1506 1506 1507 1508 1508 1508 1509 1509 1509 1509 1509 1509 1509 1508 1508 1508 1508 1508
1480 1481 1481 1481 1482 1483 1484 1485 1486 1487 1487 1488 1489 1490 1491 1492 1493 1495 1495 1497 1498 1498 1499 1499 1499 1501 1501 1502 1503 1503 1504 1504 1504 1504 1504 1504 1504 1504 1504 1504 1504 1503 1503
1475 1475 1476 1477 1478 1478 1479 1480 1481 1482 1483 1484 1485 1486 1487 1487 1489 1490 1491 1492 1493 1493 1494 1495 1495 1495 1496 1497 1498 1498 1498 1499 1499 1499 1499 1499 1499 1499 1499 1499 1499 1499 1498
1471 1471 1471 1472 1473 1473 1474 1475 1476 1477 1478 1479 1480 1481 1482 1483 1484 1485 1486 1487 1488 1489 1489 1490 1490 1490 1491 1492 1493 1493 1493 1493 1493 1494 1494 1494 1494 1494 1494 1494 1494 1494 1494
1466 1466 1466 1467 1468 1468 1470 1471 1471 1472 1473 1474 1475 1476 1477 1478 1479 1480 1481 1482 1484 1484 1484 1485 1485 1485 1486 1487 1488 1488 1488 1488 1488 1489 1489 1489 1489 1489 1489 1488 1488 1489 1489
1461 1461 1461 1462 1462 1464 1465 1466 1467 1467 1468 1469 1470 1471 1472 1473 1474 1475 1476 1477 1478 1479 1480 1480 1480 1480 1481 1482 1483 1483 1483 1483 1483 1483 1484 1483 1484 1483 1484 1483 1484 1484 1483
1456 1456 1456 1457 1457 1458 1460 1461 1462 1462 1462 1463 1464 1465 1466 1467 1469 1470 1471 1471 1472 1473 1474 1474 1475 1475 1476 1477 1478 1479 1478 1478 1478 1478 1479 1478 1478 1478 1478 1478 1478 1478 1478
1451 1451 1452 1452 1452 1453 1455 1455 1456 1456 1457 1457 1459 1460 1461 1462 1463 1465 1466 1466 1466 1467 1468 1469 1469 1470 1470 1471 1472 1473 1473 1473 1472 1472 1473 1473 1472 1473 1472 1472 1473 1473 1472
1446 1447 1447 1447 1448 1448 1449 1450 1451 1451 1451 1452 1453 1454 1455 1456 1458 1459 1460 1460 1460 1461 1462 1462 1463 1464 1464 1465 1466 1467 1467 1468 1467 1467 1467 1468 1468 1468 1467 1466 1467 1467 1467